Location: Middle Street
(51.7167°N, 0.0333°E)
Time: 20:07:25
(UTC+00:00)

CZ-4 R/B - Pass Details

Date: 20 January 2021
Orbit: 580 x 589 km, 97.7° (Epoch: 27 February)

Event Time Altitude Azimuth Distance (km) Brightness Sun altitude
Rises 18:06:14 0° 163° (SSE) 2,798 7.9 -14.8°
Reaches altitude 10° 18:08:22 10° 163° (SSE) 1,904 7.0 -15.1°
Maximum altitude 18:12:30 87° 76° (ENE) 595 4.4 -15.8°
Drops below altitude 10° 18:16:42 10° 347° (NNW) 1,925 7.1 -16.4°
Sets 18:18:52 0° 347° (NNW) 2,832 8.0 -16.7°
